[[{"header":{"parameterUnit":"m.s-1","parameterCategory":1,"la1":30.2991,"la2":30.254,"lo1":-89.0895,"lo2":-89.0444,"dy":0.0017,"dx":0.0017,"nx":28,"ny":28,"refTime":"2024-08-22T03:00:00:Z","depth":0,"parameterNumber":2,"parameterNumberName":"U-component_of_WINDS"},"data":[0,0,0,0,0,0,0,0,0,0,0,0,0,0,0,0,0,0,0,0,0,0,0,0,0,0,0,0,0,0,0,0,0,0,0,0,0,0,0,0,0,0,0,0,0,0,0,0,0,0,0,0,0,0,0,0,0,0,-4.8511,-4.8511,0,-4.8513,-4.8513,-4.8513,-4.8403,-4.84,-4.8397,-4.8394,-4.8399,-4.8402,-4.8405,0,0,0,0,0,0,0,0,0,0,0,0,0,-4.8415,-4.8417,-4.8511,-4.8511,-4.8511,-4.8513,-4.8513,-4.8513,-4.8403,-4.84,-4.8396,-4.8393,-4.8398,-4.8402,-4.8405,0,0,0,0,0,0,0,0,0,0,0,0,0,-4.8441,-4.8418,-4.8511,-4.8456,-4.8451,-4.8513,-4.8513,-4.8513,-4.8404,-4.8399,-4.8395,-4.8391,-4.8397,-4.8401,-4.8406,-4.8521,0,0,-4.8419,-4.8421,0,0,0,0,0,0,0,0,-4.844,-4.8445,-4.8464,-4.846,-4.8455,-4.8453,-4.8481,-4.8516,-4.8405,-4.8422,-4.8394,-4.8389,-4.8421,-4.8423,-4.8433,-4.8521,-4.8521,-4.8419,-4.8422,-4.8424,-4.8425,0,0,0,0,0,0,0,-4.8438,-4.8444,-4.8512,-4.8465,-4.8459,-4.8433,-4.8432,-4.8487,-4.8446,-4.842,-4.8412,-4.8414,-4.8418,-4.8429,-4.8433,-4.8521,-4.8419,-4.8423,-4.8426,-4.8427,-4.8706,-4.871,0,0,0,0,0,0,-4.8443,-4.8443,-4.8512,-4.8512,-4.8436,-4.8438,-4.8437,-4.8458,-4.8445,-4.8439,-4.8418,-4.8409,-4.8424,-4.8428,-4.8432,-4.8567,-4.8424,-4.8428,-4.843,-4.8701,-4.8707,-4.8712,0,0,0,0,0,0,-4.8442,-4.8451,-4.8512,-4.8475,-4.8481,-4.8444,-4.8469,-4.846,-4.8472,-4.8443,-4.8436,-4.8437,-4.8421,-4.8426,-4.85,-4.8566,-4.843,-4.8434,-4.8695,-4.8703,-4.8709,-4.8838,0,0,0,0,0,0,-4.8439,-4.8451,-4.8493,-4.8477,-4.8484,-4.8578,-4.8473,-4.8464,-4.8479,-4.8468,-4.8459,-4.8454,-4.8418,-4.8494,-4.8504,-4.857,-4.8437,-4.8689,-4.8698,-4.8707,-4.8828,-4.8849,-4.8867,0,0,0,0,0,-4.8436,-4.8529,-4.8496,-4.8505,-4.8536,-4.8582,-4.8586,-4.8542,-4.8485,-4.8528,-4.851,-4.8454,-4.8557,-4.8502,-4.8513,-4.8581,-4.8685,-4.8696,-4.8706,-4.8819,-4.8845,-4.8866,0,0,0,0,0,0,-4.8555,-4.8526,-4.8489,-4.8579,-4.8584,-4.8563,-4.8616,-4.857,-4.8592,-4.858,-4.8525,-4.8524,-4.8607,-4.8601,-4.854,-4.8692,-4.8611,-4.8625,-4.8693,-4.8717,-4.8737,-4.8737,-4.8441,0,0,0,0,0,-4.8591,-4.863,-4.8604,-4.8686,-4.869,-4.8654,-4.8672,-4.8637,-4.8641,-4.8642,-4.8629,-4.8636,-4.8669,-4.8693,-4.8722,-4.8826,-4.8824,-4.8878,-4.8898,-4.8914,-4.8927,-4.8983,-4.9008,-4.8747,-4.8747,-4.8747,0,0,-4.8667,-4.8656,-4.8685,-4.871,-4.8709,-4.8753,-4.8656,-4.8705,-4.8737,-4.865,-4.8719,-4.871,-4.8713,-4.8803,-4.8842,-4.8801,-4.8998,-4.8928,-4.8941,-4.8945,-4.8997,-4.9022,-4.9044,-4.8755,-4.8753,-4.8752,0,0,-4.8828,-4.8823,-4.8892,-4.8894,-4.8894,-4.8869,-4.8886,-4.8873,-4.8864,-4.8931,-4.8868,-4.8906,-4.8964,-4.897,-4.8981,-4.9145,-4.9096,-4.9157,-4.9259,-4.9315,-4.9335,-4.9353,-4.9414,-4.9436,-4.9169,-4.9169,-4.917,0,-4.8922,-4.8984,-4.8933,-4.8988,-4.9001,-4.8924,-4.8994,-4.8999,-4.901,-4.9022,-4.8975,-4.9048,-4.9045,-4.9136,-4.9176,-4.9187,-4.9206,-4.9158,-4.9336,-4.9354,-4.937,-4.9427,-4.945,-4.9177,-4.9176,-4.9175,-4.9174,0,-4.9101,-4.9145,-4.9201,-4.9213,-4.9233,-4.9295,-4.9255,-4.9282,-4.9246,-4.9227,-4.9298,-4.9291,-4.9319,-4.9338,-4.9303,-4.9425,-4.9399,-4.9345,-4.9263,-4.9403,-4.9456,-4.9477,-4.9188,-4.9185,-4.9183,-4.9181,0,0,-4.9336,-4.932,-4.9342,-4.9347,-4.9342,-4.9376,-4.9436,-4.9462,-4.9486,-4.9497,-4.9547,-4.9599,-4.9549,-4.9562,-4.9527,-4.9576,-4.9709,-4.9516,-4.9515,-4.9554,-4.9845,-4.9887,-4.9913,-4.9676,-4.968,-4.9683,-4.9845,0,-4.9493,-4.9593,-4.955,-4.9654,-4.9695,-4.9623,-4.9675,-4.9679,-4.9663,-4.9696,-4.9678,-4.9717,-4.9648,-4.9655,-4.97,-4.9684,-4.9767,-4.9671,-4.9724,-4.9726,-4.9726,-4.994,-4.9984,-5.0137,-4.9866,-4.9869,-4.9871,0,-4.969,-4.9708,-4.9817,-4.9806,-4.9822,-4.987,-4.9891,-4.9923,-4.9927,-4.9912,-4.9927,-4.9882,-4.9941,-4.9858,-4.994,-4.9876,-4.9895,-4.9891,-4.9895,-4.99,-4.9808,-4.9952,-5.0185,-5.0209,-4.9903,-4.9901,-4.9898,0,-4.9852,-4.9904,-4.9976,-4.9983,-4.9972,-5.0008,-5.0005,-5.0004,-5.0023,-5.0043,-5.0055,-5.0081,-5.0096,-5.0118,-5.0082,-5.0025,-5.0171,-5.0084,-5.0161,-5.0163,-5.0196,-5.0195,-5.0437,-5.0206,-5.0206,-5.0206,-5.0205,0,-5.0033,-5.0103,-5.0049,-5.0094,-5.0171,-5.0121,-5.0199,-5.0188,-5.0189,-5.0231,-5.017,-5.0212,-5.0161,-5.0199,-5.0171,-5.0244,-5.0251,-5.0242,-5.0234,-5.0248,-5.025,-5.0261,-5.025,-5.0212,-5.021,-5.0209,-5.0208,0,-5.0228,-5.0195,-5.0269,-5.0253,-5.0251,-5.0308,-5.0295,-5.0336,-5.0316,-5.0371,-5.0381,-5.035,-5.039,-5.0356,-5.0396,-5.0378,-5.0476,-5.0452,-5.0475,-5.0468,-5.0548,-5.0542,-5.0807,-5.084,-5.0587,-5.059,-5.0592,0,-5.0346,-5.0398,-5.0388,-5.0411,-5.0413,-5.0451,-5.0471,-5.0425,-5.0447,-5.0456,-5.0498,-5.0533,-5.0559,-5.0628,-5.061,-5.064,-5.0618,-5.0709,-5.0622,-5.0635,-5.0621,-5.0619,-5.0625,-5.0727,-5.073,-5.0732,-5.0734,0,-5.056,-5.0541,-5.057,-5.0595,-5.0619,-5.0637,-5.0649,-5.0673,-5.0626,-5.0655,-5.0695,-5.0716,-5.0756,-5.0793,-5.0818,-5.0816,-5.0769,-5.0762,-5.0781,-5.0797,-5.0809,-5.0805,-5.0524,-5.0756,-5.0754,-5.0752,-5.0751,-5.075,-5.072,-5.0764,-5.0764,-5.0799,-5.0804,-5.0818,-5.0856,-5.0841,-5.0873,-5.0902,-5.0873,-5.0924,-5.0928,-5.0956,-5.0961,-5.1,-5.0962,-5.0991,-5.0998,-5.1006,-5.1018,-5.0801,-5.1004,-5.1004,-5.1003,-5.1002,-5.1002,0,-5.0932,-5.0929,-5.0962,-5.0981,-5.101,-5.0961,-5.0973,-5.1001,-5.1045,-5.1052,-5.1079,-5.1127,-5.1163,-5.1148,-5.118,-5.1214,-5.1193,-5.1224,-5.1222,-5.1223,-5.1049,-5.103,-5.1241,-5.1241,-5.1241,-5.1241,-5.1241,-5.1241,-5.1046,-5.1117,-5.1099,-5.1173,-5.1169,-5.1217,-5.1228,-5.1241,-5.1247,-5.1303,-5.1332,-5.1321,-5.1321,-5.1352,-5.1383,-5.1378,-5.1394,-5.1433,-5.142,-5.1258,-5.1235,-5.1213,-5.1194,-5.1436,-5.1437,-5.1591,-5.1592,-5.1593]},{"header":{"parameterUnit":"m.s-1","parameterCategory":1,"la1":30.2991,"la2":30.254,"lo1":-89.0895,"lo2":-89.0444,"dy":0.0017,"dx":0.0017,"nx":28,"ny":28,"refTime":"2024-08-22T03:00:00:Z","depth":0,"parameterNumber":3,"parameterNumberName":"V-component_of_WINDS"},"data":[0,0,0,0,0,0,0,0,0,0,0,0,0,0,0,0,0,0,0,0,0,0,0,0,0,0,0,0,0,0,0,0,0,0,0,0,0,0,0,0,0,0,0,0,0,0,0,0,0,0,0,0,0,0,0,0,0,0,1.0671,1.067,0,1.0572,1.0571,1.057,1.0553,1.0554,1.0555,1.0556,1.0446,1.0442,1.0439,0,0,0,0,0,0,0,0,0,0,0,0,0,1.0841,1.0838,1.0671,1.067,1.0669,1.0572,1.0571,1.0569,1.0553,1.0554,1.0555,1.0556,1.0447,1.0443,1.0438,0,0,0,0,0,0,0,0,0,0,0,0,0,1.0757,1.0837,1.0672,1.0649,1.0646,1.0572,1.0571,1.0569,1.0553,1.0554,1.0555,1.0557,1.0449,1.0443,1.0438,1.0377,0,0,1.0421,1.0418,0,0,0,0,0,0,0,0,1.0762,1.0751,1.0654,1.0651,1.0647,1.0577,1.059,1.0504,1.0552,1.0588,1.0556,1.0557,1.0488,1.0479,1.0457,1.0371,1.0367,1.042,1.0417,1.0414,1.0413,0,0,0,0,0,0,0,1.0768,1.0755,1.0632,1.0652,1.0648,1.0642,1.0632,1.0574,1.0531,1.0585,1.0584,1.0573,1.0486,1.0463,1.0455,1.0365,1.042,1.0415,1.0412,1.041,1.0223,1.0222,0,0,0,0,0,0,1.0778,1.076,1.0635,1.0629,1.0709,1.0638,1.0626,1.0598,1.0532,1.0524,1.0572,1.0572,1.0472,1.0461,1.0451,1.0374,1.0414,1.0409,1.0406,1.0225,1.0223,1.0221,0,0,0,0,0,0,1.0782,1.0767,1.0639,1.0694,1.0677,1.0634,1.0602,1.0595,1.0572,1.0522,1.0514,1.0556,1.0472,1.0459,1.0396,1.037,1.0407,1.0401,1.0227,1.0224,1.0222,1.022,0,0,0,0,0,0,1.0787,1.0769,1.0746,1.0694,1.0674,1.0587,1.06,1.0592,1.0563,1.0563,1.0505,1.0496,1.0472,1.0404,1.039,1.0363,1.0397,1.0229,1.0226,1.0223,1.0222,1.0218,1.0214,0,0,0,0,0,1.0793,1.0748,1.0745,1.073,1.0646,1.0586,1.0575,1.055,1.0561,1.0537,1.0505,1.0498,1.0376,1.0398,1.0382,1.0352,1.023,1.0227,1.0223,1.0224,1.0218,1.0214,0,0,0,0,0,0,1.0796,1.0741,1.0737,1.0674,1.0635,1.0583,1.0552,1.0545,1.05,1.0502,1.0471,1.0458,1.0396,1.0368,1.0394,1.0289,1.0303,1.0297,1.0309,1.0304,1.03,1.0307,1.0392,0,0,0,0,0,1.079,1.0748,1.0701,1.065,1.0631,1.0595,1.0568,1.0553,1.051,1.0493,1.0457,1.0413,1.0365,1.0333,1.0286,1.0219,1.0205,1.0191,1.0187,1.0184,1.0177,1.0138,1.0131,1.021,1.021,1.021,0,0,1.0775,1.074,1.0715,1.065,1.0618,1.0573,1.0581,1.0533,1.0499,1.0485,1.0423,1.0395,1.0345,1.028,1.0249,1.0254,1.0153,1.018,1.0178,1.0172,1.0134,1.0127,1.012,1.0207,1.0208,1.0208,0,0,1.0726,1.0696,1.065,1.0618,1.0571,1.0548,1.0537,1.0487,1.0468,1.0407,1.0396,1.0354,1.0271,1.0236,1.0207,1.0147,1.0138,1.0132,1.011,1.0073,1.0066,1.0061,1.0037,1.0029,1.0126,1.0126,1.0126,0,1.0712,1.0647,1.0626,1.0579,1.055,1.0539,1.0491,1.0461,1.0399,1.0378,1.0387,1.0284,1.0249,1.0175,1.016,1.0138,1.0123,1.0137,1.007,1.0064,1.0058,1.0035,1.0026,1.0126,1.0126,1.0126,1.0126,0,1.0632,1.0587,1.0555,1.0499,1.0467,1.0419,1.039,1.0359,1.0348,1.0323,1.026,1.0219,1.0163,1.0145,1.0132,1.0069,1.0074,1.0076,1.0089,1.005,1.0028,1.0019,1.0125,1.0125,1.0125,1.0126,0,0,1.0578,1.0514,1.0502,1.0476,1.0425,1.0388,1.034,1.0288,1.0261,1.022,1.0177,1.011,1.0112,1.008,1.0063,1.0031,0.9983,1.0037,1.0035,1.0026,0.9909,0.9905,0.9895,0.9979,0.9977,0.9976,0.9912,0,1.052,1.0436,1.0417,1.0344,1.0301,1.0291,1.0249,1.0211,1.0188,1.0146,1.0119,1.0071,1.0079,1.0059,1.0027,0.9996,0.9959,1.0001,0.9935,0.9933,0.9946,0.9884,0.9879,0.9821,0.9903,0.9902,0.9901,0,1.0441,1.0401,1.0324,1.0279,1.026,1.0222,1.0173,1.0135,1.0092,1.0077,1.0042,1.0029,0.9977,0.9996,0.9922,0.9951,0.9924,0.9904,0.9901,0.9891,0.9912,0.9869,0.9802,0.9792,0.9887,0.9889,0.9889,0,1.0406,1.0333,1.0277,1.0256,1.0202,1.0176,1.0152,1.0111,1.0081,1.0038,1.0018,0.9969,0.9941,0.9902,0.9876,0.9892,0.9803,0.982,0.9787,0.9787,0.9765,0.9766,0.9689,0.9753,0.9753,0.9753,0.9754,0,1.0342,1.0294,1.0261,1.0226,1.0173,1.0152,1.0099,1.0074,1.0038,0.9997,0.9986,0.9947,0.9916,0.9872,0.9852,0.9792,0.978,0.9765,0.9759,0.9764,0.9766,0.9743,0.9745,0.9751,0.9752,0.9752,0.9752,0,1.0292,1.0268,1.0207,1.0162,1.015,1.0112,1.0073,1.0038,1.0016,0.9964,0.995,0.9914,0.9863,0.9834,0.9768,0.9754,0.9688,0.9685,0.9702,0.9699,0.9667,0.9669,0.957,0.9555,0.9632,0.9631,0.963,0,1.0251,1.0215,1.0167,1.014,1.0117,1.0073,1.0044,1.0022,0.9991,0.994,0.9911,0.986,0.9817,0.9735,0.9701,0.9651,0.9645,0.9614,0.9637,0.9643,0.9641,0.9643,0.9638,0.9609,0.9608,0.9608,0.9607,0,1.0179,1.017,1.0129,1.0085,1.005,1.0013,0.9976,0.9955,0.9926,0.9892,0.9841,0.9808,0.9743,0.9691,0.9639,0.9611,0.9603,0.9601,0.959,0.9593,0.9603,0.9595,0.9688,0.9602,0.9603,0.9603,0.9603,0.9604,1.0131,1.0098,1.006,1.0014,0.9986,0.9952,0.9917,0.9892,0.985,0.9796,0.9786,0.9731,0.9689,0.9619,0.959,0.9546,0.9551,0.9536,0.9531,0.9527,0.9525,0.9614,0.9536,0.9536,0.9536,0.9537,0.9537,0,1.0056,1.0032,0.9991,0.9942,0.9906,0.9906,0.9866,0.9835,0.9788,0.9751,0.9711,0.9651,0.9601,0.9565,0.9514,0.9485,0.948,0.9472,0.9472,0.9465,0.9524,0.9537,0.9477,0.9477,0.9477,0.9477,0.9477,0.9477,1.0013,0.9958,0.9944,0.9874,0.9849,0.9797,0.9774,0.9742,0.9713,0.9648,0.9608,0.9586,0.9549,0.9495,0.9449,0.944,0.942,0.9412,0.9401,0.9455,0.9462,0.9467,0.948,0.9408,0.9408,0.9346,0.9345,0.9345]}]]